Data supplied by UK-AIR on 2/4/2010
All Data GMT hour ending  NB:  Upto 03/02/2009 PM10 were measured with a Partisol (quartz), from 04/02/2009 PM10 were measured with a Partisol (emfab)
Status: R =Ratified P=Provisional,P*=As supplied
,,Wrexham,,,,,,,,,,,,,,,,,,,,,,,
Date,time,"Nitric oxide",status,unit,"Nitrogen dioxide",status,unit,"Nitrogen oxides as nitrogen dioxide",status,unit,"Sulphur dioxide",status,unit,"Daily measured PM10 (uncorrected)",status,unit,"Daily measured PM2.5 (uncorrected)",status,unit
 
01-01-2009,01:00,,,,,,,,,,0,R,ugm-3,,,,,,
01-01-2009,02:00,28,R,ugm-3,55,R,ugm-3,97,R,ugm-3,3,R,ugm-3,,,,,,
01-01-2009,03:00,33,R,ugm-3,59,R,ugm-3,109,R,ugm-3,3,R,ugm-3,,,,,,
01-01-2009,04:00,31,R,ugm-3,59,R,ugm-3,107,R,ugm-3,3,R,ugm-3,,,,,,
01-01-2009,05:00,19,R,ugm-3,53,R,ugm-3,82,R,ugm-3,0,R,ugm-3,,,,,,
01-01-2009,06:00,11,R,ugm-3,53,R,ugm-3,71,R,ugm-3,0,R,ugm-3,,,,,,
01-01-2009,07:00,20,R,ugm-3,55,R,ugm-3,86,R,ugm-3,3,R,ugm-3,,,,,,
01-01-2009,08:00,16,R,ugm-3,55,R,ugm-3,80,R,ugm-3,5,R,ugm-3,,,,,,
01-01-2009,09:00,14,R,ugm-3,53,R,ugm-3,74,R,ugm-3,5,R,ugm-3,,,,,,
01-01-2009,10:00,6,R,ugm-3,36,R,ugm-3,46,R,ugm-3,5,R,ugm-3,,,,,,
01-01-2009,11:00,11,R,ugm-3,44,R,ugm-3,61,R,ugm-3,5,R,ugm-3,,,,,,
01-01-2009,12:00,9,R,ugm-3,36,R,ugm-3,50,R,ugm-3,3,R,ugm-3,,,,,,
01-01-2009,13:00,9,R,ugm-3,34,R,ugm-3,48,R,ugm-3,3,R,ugm-3,,,,,,
01-01-2009,14:00,8,R,ugm-3,29,R,ugm-3,40,R,ugm-3,3,R,ugm-3,,,,,,
01-01-2009,15:00,11,R,ugm-3,36,R,ugm-3,53,R,ugm-3,3,R,ugm-3,,,,,,
01-01-2009,16:00,9,R,ugm-3,32,R,ugm-3,46,R,ugm-3,3,R,ugm-3,,,,,,
01-01-2009,17:00,8,R,ugm-3,34,R,ugm-3,46,R,ugm-3,3,R,ugm-3,,,,,,
01-01-2009,18:00,6,R,ugm-3,36,R,ugm-3,46,R,ugm-3,3,R,ugm-3,,,,,,
01-01-2009,19:00,5,R,ugm-3,34,R,ugm-3,42,R,ugm-3,3,R,ugm-3,,,,,,
01-01-2009,20:00,5,R,ugm-3,36,R,ugm-3,44,R,ugm-3,3,R,ugm-3,,,,,,
01-01-2009,21:00,13,R,ugm-3,40,R,ugm-3,59,R,ugm-3,3,R,ugm-3,,,,,,
01-01-2009,22:00,8,R,ugm-3,32,R,ugm-3,44,R,ugm-3,3,R,ugm-3,,,,,,
01-01-2009,23:00,11,R,ugm-3,36,R,ugm-3,53,R,ugm-3,3,R,ugm-3,,,,,,
01-01-2009,24:00,10,R,ugm-3,34,R,ugm-3,50,R,ugm-3,3,R,ugm-3,,,,,,
02-01-2009,01:00,8,R,ugm-3,32,R,ugm-3,44,R,ugm-3,3,R,ugm-3,,,,,,
02-01-2009,02:00,8,R,ugm-3,34,R,ugm-3,46,R,ugm-3,0,R,ugm-3,,,,,,
02-01-2009,03:00,15,R,ugm-3,34,R,ugm-3,57,R,ugm-3,3,R,ugm-3,,,,,,
02-01-2009,04:00,19,R,ugm-3,38,R,ugm-3,67,R,ugm-3,3,R,ugm-3,,,,,,
02-01-2009,05:00,16,R,ugm-3,36,R,ugm-3,61,R,ugm-3,3,R,ugm-3,,,,,,
02-01-2009,06:00,38,R,ugm-3,34,R,ugm-3,92,R,ugm-3,3,R,ugm-3,,,,,,
02-01-2009,07:00,69,R,ugm-3,46,R,ugm-3,151,R,ugm-3,5,R,ugm-3,,,,,,
02-01-2009,08:00,146,R,ugm-3,69,R,ugm-3,292,R,ugm-3,8,R,ugm-3,,,,,,
02-01-2009,09:00,150,R,ugm-3,71,R,ugm-3,300,R,ugm-3,8,R,ugm-3,,,,,,
02-01-2009,10:00,110,R,ugm-3,82,R,ugm-3,250,R,ugm-3,8,R,ugm-3,,,,,,
02-01-2009,11:00,65,R,ugm-3,67,R,ugm-3,166,R,ugm-3,8,R,ugm-3,,,,,,
02-01-2009,12:00,50,R,ugm-3,59,R,ugm-3,136,R,ugm-3,8,R,ugm-3,,,,,,
02-01-2009,13:00,70,R,ugm-3,76,R,ugm-3,183,R,ugm-3,8,R,ugm-3,,,,,,
02-01-2009,14:00,63,R,ugm-3,73,R,ugm-3,168,R,ugm-3,5,R,ugm-3,,,,,,
02-01-2009,15:00,75,R,ugm-3,78,R,ugm-3,193,R,ugm-3,5,R,ugm-3,,,,,,
02-01-2009,16:00,95,R,ugm-3,92,R,ugm-3,237,R,ugm-3,5,R,ugm-3,,,,,,
02-01-2009,17:00,84,R,ugm-3,88,R,ugm-3,216,R,ugm-3,5,R,ugm-3,,,,,,
02-01-2009,18:00,84,R,ugm-3,90,R,ugm-3,218,R,ugm-3,5,R,ugm-3,,,,,,
02-01-2009,19:00,113,R,ugm-3,97,R,ugm-3,269,R,ugm-3,8,R,ugm-3,,,,,,
02-01-2009,20:00,80,R,ugm-3,82,R,ugm-3,204,R,ugm-3,5,R,ugm-3,,,,,,
02-01-2009,21:00,21,R,ugm-3,52,R,ugm-3,84,R,ugm-3,3,R,ugm-3,,,,,,
02-01-2009,22:00,26,R,ugm-3,57,R,ugm-3,97,R,ugm-3,3,R,ugm-3,,,,,,
02-01-2009,23:00,55,R,ugm-3,69,R,ugm-3,153,R,ugm-3,3,R,ugm-3,,,,,,
02-01-2009,24:00,30,R,ugm-3,52,R,ugm-3,97,R,ugm-3,3,R,ugm-3,,,,,,
03-01-2009,01:00,26,R,ugm-3,46,R,ugm-3,86,R,ugm-3,0,R,ugm-3,,,,,,
03-01-2009,02:00,16,R,ugm-3,36,R,ugm-3,61,R,ugm-3,0,R,ugm-3,,,,,,
03-01-2009,03:00,10,R,ugm-3,32,R,ugm-3,48,R,ugm-3,0,R,ugm-3,,,,,,
03-01-2009,04:00,10,R,ugm-3,31,R,ugm-3,46,R,ugm-3,0,R,ugm-3,,,,,,
03-01-2009,05:00,10,R,ugm-3,31,R,ugm-3,46,R,ugm-3,0,R,ugm-3,,,,,,
03-01-2009,06:00,8,R,ugm-3,31,R,ugm-3,42,R,ugm-3,0,R,ugm-3,,,,,,
03-01-2009,07:00,23,R,ugm-3,36,R,ugm-3,71,R,ugm-3,0,R,ugm-3,,,,,,
03-01-2009,08:00,21,R,ugm-3,42,R,ugm-3,74,R,ugm-3,0,R,ugm-3,,,,,,
03-01-2009,09:00,25,R,ugm-3,52,R,ugm-3,90,R,ugm-3,0,R,ugm-3,,,,,,
03-01-2009,10:00,98,R,ugm-3,118,R,ugm-3,267,R,ugm-3,5,R,ugm-3,,,,,,
03-01-2009,11:00,75,R,ugm-3,71,R,ugm-3,185,R,ugm-3,3,R,ugm-3,,,,,,
03-01-2009,12:00,45,R,ugm-3,59,R,ugm-3,128,R,ugm-3,5,R,ugm-3,,,,,,
03-01-2009,13:00,81,R,ugm-3,90,R,ugm-3,214,R,ugm-3,8,R,ugm-3,,,,,,
03-01-2009,14:00,50,R,ugm-3,63,R,ugm-3,139,R,ugm-3,5,R,ugm-3,,,,,,
03-01-2009,15:00,56,R,ugm-3,67,R,ugm-3,153,R,ugm-3,5,R,ugm-3,,,,,,
03-01-2009,16:00,94,R,ugm-3,86,R,ugm-3,229,R,ugm-3,5,R,ugm-3,,,,,,
03-01-2009,17:00,68,R,ugm-3,78,R,ugm-3,181,R,ugm-3,5,R,ugm-3,,,,,,
03-01-2009,18:00,39,R,ugm-3,63,R,ugm-3,122,R,ugm-3,3,R,ugm-3,,,,,,
03-01-2009,19:00,46,R,ugm-3,55,R,ugm-3,126,R,ugm-3,3,R,ugm-3,,,,,,
03-01-2009,20:00,31,R,ugm-3,57,R,ugm-3,105,R,ugm-3,3,R,ugm-3,,,,,,
03-01-2009,21:00,25,R,ugm-3,57,R,ugm-3,96,R,ugm-3,3,R,ugm-3,,,,,,
03-01-2009,22:00,9,R,ugm-3,46,R,ugm-3,59,R,ugm-3,5,R,ugm-3,,,,,,
03-01-2009,23:00,5,R,ugm-3,36,R,ugm-3,44,R,ugm-3,3,R,ugm-3,,,,,,
03-01-2009,24:00,1,R,ugm-3,13,R,ugm-3,15,R,ugm-3,3,R,ugm-3,,,,,,
04-01-2009,01:00,0,R,ugm-3,8,R,ugm-3,8,R,ugm-3,3,R,ugm-3,,,,,,
04-01-2009,02:00,0,R,ugm-3,2,R,ugm-3,2,R,ugm-3,3,R,ugm-3,,,,,,
04-01-2009,03:00,0,R,ugm-3,2,R,ugm-3,2,R,ugm-3,3,R,ugm-3,,,,,,
04-01-2009,04:00,0,R,ugm-3,11,R,ugm-3,11,R,ugm-3,3,R,ugm-3,,,,,,
04-01-2009,05:00,3,R,ugm-3,19,R,ugm-3,23,R,ugm-3,3,R,ugm-3,,,,,,
04-01-2009,06:00,0,R,ugm-3,10,R,ugm-3,10,R,ugm-3,3,R,ugm-3,,,,,,
04-01-2009,07:00,0,R,ugm-3,8,R,ugm-3,8,R,ugm-3,3,R,ugm-3,,,,,,
04-01-2009,08:00,0,R,ugm-3,8,R,ugm-3,8,R,ugm-3,3,R,ugm-3,,,,,,
04-01-2009,09:00,4,R,ugm-3,10,R,ugm-3,15,R,ugm-3,3,R,ugm-3,,,,,,
04-01-2009,10:00,0,R,ugm-3,8,R,ugm-3,8,R,ugm-3,3,R,ugm-3,,,,,,
04-01-2009,11:00,18,R,ugm-3,32,R,ugm-3,59,R,ugm-3,5,R,ugm-3,,,,,,
04-01-2009,12:00,29,R,ugm-3,44,R,ugm-3,88,R,ugm-3,3,R,ugm-3,,,,,,
04-01-2009,13:00,41,R,ugm-3,52,R,ugm-3,115,R,ugm-3,5,R,ugm-3,,,,,,
04-01-2009,14:00,35,R,ugm-3,46,R,ugm-3,99,R,ugm-3,5,R,ugm-3,,,,,,
04-01-2009,15:00,36,R,ugm-3,50,R,ugm-3,105,R,ugm-3,5,R,ugm-3,,,,,,
04-01-2009,16:00,93,R,ugm-3,80,R,ugm-3,222,R,ugm-3,8,R,ugm-3,,,,,,
04-01-2009,17:00,88,R,ugm-3,71,R,ugm-3,204,R,ugm-3,8,R,ugm-3,,,,,,
04-01-2009,18:00,66,R,ugm-3,55,R,ugm-3,157,R,ugm-3,5,R,ugm-3,,,,,,
04-01-2009,19:00,108,R,ugm-3,78,R,ugm-3,243,R,ugm-3,5,R,ugm-3,,,,,,
04-01-2009,20:00,36,R,ugm-3,50,R,ugm-3,105,R,ugm-3,5,R,ugm-3,,,,,,
04-01-2009,21:00,4,R,ugm-3,34,R,ugm-3,40,R,ugm-3,3,R,ugm-3,,,,,,
04-01-2009,22:00,20,R,ugm-3,42,R,ugm-3,73,R,ugm-3,3,R,ugm-3,,,,,,
04-01-2009,23:00,6,R,ugm-3,21,R,ugm-3,31,R,ugm-3,3,R,ugm-3,,,,,,
04-01-2009,24:00,0,R,ugm-3,8,R,ugm-3,8,R,ugm-3,3,R,ugm-3,,,,,,
05-01-2009,01:00,3,R,ugm-3,10,R,ugm-3,13,R,ugm-3,3,R,ugm-3,,,,,,
05-01-2009,02:00,1,R,ugm-3,6,R,ugm-3,8,R,ugm-3,3,R,ugm-3,,,,,,
05-01-2009,03:00,3,R,ugm-3,15,R,ugm-3,19,R,ugm-3,3,R,ugm-3,,,,,,
05-01-2009,04:00,1,R,ugm-3,13,R,ugm-3,15,R,ugm-3,3,R,ugm-3,,,,,,
05-01-2009,05:00,5,R,ugm-3,21,R,ugm-3,29,R,ugm-3,3,R,ugm-3,,,,,,
05-01-2009,06:00,5,R,ugm-3,23,R,ugm-3,31,R,ugm-3,5,R,ugm-3,,,,,,
05-01-2009,07:00,20,R,ugm-3,36,R,ugm-3,67,R,ugm-3,3,R,ugm-3,,,,,,
05-01-2009,08:00,61,R,ugm-3,67,R,ugm-3,160,R,ugm-3,5,R,ugm-3,,,,,,
05-01-2009,09:00,93,R,ugm-3,84,R,ugm-3,225,R,ugm-3,8,R,ugm-3,,,,,,
05-01-2009,10:00,113,R,ugm-3,88,R,ugm-3,260,R,ugm-3,8,R,ugm-3,,,,,,
05-01-2009,11:00,81,R,ugm-3,76,R,ugm-3,201,R,ugm-3,5,R,ugm-3,,,,,,
05-01-2009,12:00,49,R,ugm-3,63,R,ugm-3,138,R,ugm-3,5,R,ugm-3,,,,,,
05-01-2009,13:00,55,R,ugm-3,71,R,ugm-3,155,R,ugm-3,5,R,ugm-3,,,,,,
05-01-2009,14:00,46,R,ugm-3,57,R,ugm-3,128,R,ugm-3,5,R,ugm-3,,,,,,
05-01-2009,15:00,48,R,ugm-3,61,R,ugm-3,134,R,ugm-3,5,R,ugm-3,,,,,,
05-01-2009,16:00,55,R,ugm-3,67,R,ugm-3,151,R,ugm-3,5,R,ugm-3,,,,,,
05-01-2009,17:00,74,R,ugm-3,90,R,ugm-3,202,R,ugm-3,5,R,ugm-3,,,,,,
05-01-2009,18:00,195,R,ugm-3,136,R,ugm-3,434,R,ugm-3,11,R,ugm-3,,,,,,
05-01-2009,19:00,83,R,ugm-3,94,R,ugm-3,220,R,ugm-3,5,R,ugm-3,,,,,,
05-01-2009,20:00,89,R,ugm-3,92,R,ugm-3,227,R,ugm-3,8,R,ugm-3,,,,,,
05-01-2009,21:00,66,R,ugm-3,84,R,ugm-3,185,R,ugm-3,5,R,ugm-3,,,,,,
05-01-2009,22:00,88,R,ugm-3,90,R,ugm-3,223,R,ugm-3,8,R,ugm-3,,,,,,
05-01-2009,23:00,55,R,ugm-3,78,R,ugm-3,162,R,ugm-3,5,R,ugm-3,,,,,,
05-01-2009,24:00,34,R,ugm-3,74,R,ugm-3,126,R,ugm-3,5,R,ugm-3,,,,,,
06-01-2009,01:00,24,R,ugm-3,71,R,ugm-3,107,R,ugm-3,5,R,ugm-3,,,,,,
06-01-2009,02:00,13,R,ugm-3,67,R,ugm-3,86,R,ugm-3,3,R,ugm-3,,,,,,
06-01-2009,03:00,8,R,ugm-3,59,R,ugm-3,71,R,ugm-3,5,R,ugm-3,,,,,,
06-01-2009,04:00,8,R,ugm-3,57,R,ugm-3,69,R,ugm-3,3,R,ugm-3,,,,,,
06-01-2009,05:00,13,R,ugm-3,52,R,ugm-3,71,R,ugm-3,3,R,ugm-3,,,,,,
06-01-2009,06:00,70,R,ugm-3,65,R,ugm-3,172,R,ugm-3,5,R,ugm-3,,,,,,
06-01-2009,07:00,98,R,ugm-3,92,R,ugm-3,241,R,ugm-3,5,R,ugm-3,,,,,,
06-01-2009,08:00,141,R,ugm-3,130,R,ugm-3,346,R,ugm-3,8,R,ugm-3,,,,,,
06-01-2009,09:00,118,R,ugm-3,86,R,ugm-3,265,R,ugm-3,5,R,ugm-3,,,,,,
06-01-2009,10:00,103,R,ugm-3,86,R,ugm-3,243,R,ugm-3,5,R,ugm-3,,,,,,
06-01-2009,11:00,100,R,ugm-3,90,R,ugm-3,243,R,ugm-3,11,R,ugm-3,,,,,,
06-01-2009,12:00,45,R,ugm-3,61,R,ugm-3,130,R,ugm-3,8,R,ugm-3,,,,,,
06-01-2009,13:00,5,R,ugm-3,17,R,ugm-3,25,R,ugm-3,3,R,ugm-3,,,,,,
06-01-2009,14:00,10,R,ugm-3,21,R,ugm-3,36,R,ugm-3,5,R,ugm-3,,,,,,
06-01-2009,15:00,9,R,ugm-3,25,R,ugm-3,38,R,ugm-3,5,R,ugm-3,,,,,,
06-01-2009,16:00,,,,,,,,,,,,,,,,,,
06-01-2009,17:00,11,R,ugm-3,52,R,ugm-3,69,R,ugm-3,3,R,ugm-3,,,,,,
06-01-2009,18:00,25,R,ugm-3,63,R,ugm-3,101,R,ugm-3,5,R,ugm-3,,,,,,
06-01-2009,19:00,48,R,ugm-3,78,R,ugm-3,151,R,ugm-3,5,R,ugm-3,,,,,,
06-01-2009,20:00,70,R,ugm-3,86,R,ugm-3,193,R,ugm-3,5,R,ugm-3,,,,,,
06-01-2009,21:00,54,R,ugm-3,74,R,ugm-3,157,R,ugm-3,5,R,ugm-3,,,,,,
06-01-2009,22:00,25,R,ugm-3,61,R,ugm-3,99,R,ugm-3,5,R,ugm-3,,,,,,
06-01-2009,23:00,1,R,ugm-3,10,R,ugm-3,11,R,ugm-3,3,R,ugm-3,,,,,,
06-01-2009,24:00,1,R,ugm-3,8,R,ugm-3,10,R,ugm-3,3,R,ugm-3,,,,,,
07-01-2009,01:00,0,R,ugm-3,10,R,ugm-3,10,R,ugm-3,3,R,ugm-3,,,,,,
07-01-2009,02:00,1,R,ugm-3,15,R,ugm-3,17,R,ugm-3,3,R,ugm-3,,,,,,
07-01-2009,03:00,0,R,ugm-3,8,R,ugm-3,8,R,ugm-3,3,R,ugm-3,,,,,,
07-01-2009,04:00,0,R,ugm-3,10,R,ugm-3,10,R,ugm-3,3,R,ugm-3,,,,,,
07-01-2009,05:00,3,R,ugm-3,15,R,ugm-3,19,R,ugm-3,3,R,ugm-3,,,,,,
07-01-2009,06:00,9,R,ugm-3,36,R,ugm-3,50,R,ugm-3,3,R,ugm-3,,,,,,
07-01-2009,07:00,51,R,ugm-3,69,R,ugm-3,147,R,ugm-3,3,R,ugm-3,,,,,,
07-01-2009,08:00,98,R,ugm-3,80,R,ugm-3,229,R,ugm-3,8,R,ugm-3,,,,,,
07-01-2009,09:00,118,R,ugm-3,94,R,ugm-3,273,R,ugm-3,8,R,ugm-3,,,,,,
07-01-2009,10:00,125,R,ugm-3,94,R,ugm-3,285,R,ugm-3,8,R,ugm-3,,,,,,
07-01-2009,11:00,109,R,ugm-3,86,R,ugm-3,252,R,ugm-3,8,R,ugm-3,,,,,,
07-01-2009,12:00,81,R,ugm-3,78,R,ugm-3,202,R,ugm-3,5,R,ugm-3,,,,,,
07-01-2009,13:00,96,R,ugm-3,80,R,ugm-3,227,R,ugm-3,5,R,ugm-3,,,,,,
07-01-2009,14:00,76,R,ugm-3,73,R,ugm-3,189,R,ugm-3,5,R,ugm-3,,,,,,
07-01-2009,15:00,66,R,ugm-3,61,R,ugm-3,162,R,ugm-3,5,R,ugm-3,,,,,,
07-01-2009,16:00,81,R,ugm-3,78,R,ugm-3,202,R,ugm-3,5,R,ugm-3,,,,,,
07-01-2009,17:00,43,R,ugm-3,59,R,ugm-3,124,R,ugm-3,3,R,ugm-3,,,,,,
07-01-2009,18:00,121,R,ugm-3,78,R,ugm-3,264,R,ugm-3,5,R,ugm-3,,,,,,
07-01-2009,19:00,80,R,ugm-3,74,R,ugm-3,197,R,ugm-3,8,R,ugm-3,,,,,,
07-01-2009,20:00,50,R,ugm-3,67,R,ugm-3,143,R,ugm-3,5,R,ugm-3,,,,,,
07-01-2009,21:00,53,R,ugm-3,59,R,ugm-3,139,R,ugm-3,5,R,ugm-3,,,,,,
07-01-2009,22:00,59,R,ugm-3,59,R,ugm-3,149,R,ugm-3,5,R,ugm-3,,,,,,
07-01-2009,23:00,55,R,ugm-3,61,R,ugm-3,145,R,ugm-3,5,R,ugm-3,,,,,,
07-01-2009,24:00,46,R,ugm-3,55,R,ugm-3,126,R,ugm-3,5,R,ugm-3,,,,,,
08-01-2009,01:00,34,R,ugm-3,42,R,ugm-3,94,R,ugm-3,5,R,ugm-3,,,,,,
08-01-2009,02:00,6,R,ugm-3,29,R,ugm-3,38,R,ugm-3,3,R,ugm-3,,,,,,
08-01-2009,03:00,8,R,ugm-3,36,R,ugm-3,48,R,ugm-3,3,R,ugm-3,,,,,,
08-01-2009,04:00,15,R,ugm-3,38,R,ugm-3,61,R,ugm-3,3,R,ugm-3,,,,,,
08-01-2009,05:00,5,R,ugm-3,17,R,ugm-3,25,R,ugm-3,3,R,ugm-3,,,,,,
08-01-2009,06:00,13,R,ugm-3,21,R,ugm-3,40,R,ugm-3,3,R,ugm-3,,,,,,
08-01-2009,07:00,51,R,ugm-3,52,R,ugm-3,130,R,ugm-3,5,R,ugm-3,,,,,,
08-01-2009,08:00,141,R,ugm-3,74,R,ugm-3,290,R,ugm-3,8,R,ugm-3,,,,,,
08-01-2009,09:00,215,R,ugm-3,92,R,ugm-3,420,R,ugm-3,11,R,ugm-3,,,,,,
08-01-2009,10:00,170,R,ugm-3,90,R,ugm-3,350,R,ugm-3,8,R,ugm-3,,,,,,
08-01-2009,11:00,88,R,ugm-3,65,R,ugm-3,199,R,ugm-3,5,R,ugm-3,,,,,,
08-01-2009,12:00,85,R,ugm-3,67,R,ugm-3,197,R,ugm-3,5,R,ugm-3,,,,,,
08-01-2009,13:00,63,R,ugm-3,55,R,ugm-3,151,R,ugm-3,5,R,ugm-3,,,,,,
08-01-2009,14:00,46,R,ugm-3,65,R,ugm-3,136,R,ugm-3,5,R,ugm-3,,,,,,
08-01-2009,15:00,69,R,ugm-3,63,R,ugm-3,168,R,ugm-3,5,R,ugm-3,,,,,,
08-01-2009,16:00,146,R,ugm-3,99,R,ugm-3,323,R,ugm-3,8,R,ugm-3,,,,,,
08-01-2009,17:00,143,R,ugm-3,82,R,ugm-3,300,R,ugm-3,8,R,ugm-3,,,,,,
08-01-2009,18:00,104,R,ugm-3,67,R,ugm-3,225,R,ugm-3,5,R,ugm-3,,,,,,
08-01-2009,19:00,179,R,ugm-3,94,R,ugm-3,367,R,ugm-3,8,R,ugm-3,,,,,,
08-01-2009,20:00,110,R,ugm-3,76,R,ugm-3,244,R,ugm-3,8,R,ugm-3,,,,,,
08-01-2009,21:00,61,R,ugm-3,55,R,ugm-3,149,R,ugm-3,5,R,ugm-3,,,,,,
08-01-2009,22:00,94,R,ugm-3,67,R,ugm-3,210,R,ugm-3,5,R,ugm-3,,,,,,
08-01-2009,23:00,46,R,ugm-3,46,R,ugm-3,117,R,ugm-3,5,R,ugm-3,,,,,,
08-01-2009,24:00,18,R,ugm-3,34,R,ugm-3,61,R,ugm-3,3,R,ugm-3,,,,,,
09-01-2009,01:00,11,R,ugm-3,29,R,ugm-3,46,R,ugm-3,3,R,ugm-3,,,,,,
09-01-2009,02:00,4,R,ugm-3,21,R,ugm-3,27,R,ugm-3,3,R,ugm-3,,,,,,
09-01-2009,03:00,4,R,ugm-3,19,R,ugm-3,25,R,ugm-3,0,R,ugm-3,,,,,,
09-01-2009,04:00,5,R,ugm-3,21,R,ugm-3,29,R,ugm-3,0,R,ugm-3,,,,,,
09-01-2009,05:00,3,R,ugm-3,13,R,ugm-3,17,R,ugm-3,0,R,ugm-3,,,,,,
09-01-2009,06:00,13,R,ugm-3,23,R,ugm-3,42,R,ugm-3,3,R,ugm-3,,,,,,
09-01-2009,07:00,29,R,ugm-3,34,R,ugm-3,78,R,ugm-3,3,R,ugm-3,,,,,,
09-01-2009,08:00,49,R,ugm-3,53,R,ugm-3,128,R,ugm-3,3,R,ugm-3,,,,,,
09-01-2009,09:00,69,R,ugm-3,63,R,ugm-3,168,R,ugm-3,3,R,ugm-3,,,,,,
09-01-2009,10:00,58,R,ugm-3,53,R,ugm-3,141,R,ugm-3,3,R,ugm-3,,,,,,
09-01-2009,11:00,23,R,ugm-3,29,R,ugm-3,63,R,ugm-3,5,R,ugm-3,,,,,,
09-01-2009,12:00,28,R,ugm-3,34,R,ugm-3,76,R,ugm-3,8,R,ugm-3,,,,,,
09-01-2009,13:00,26,R,ugm-3,29,R,ugm-3,69,R,ugm-3,8,R,ugm-3,,,,,,
09-01-2009,14:00,28,R,ugm-3,38,R,ugm-3,80,R,ugm-3,11,R,ugm-3,,,,,,
09-01-2009,15:00,46,R,ugm-3,55,R,ugm-3,126,R,ugm-3,13,R,ugm-3,,,,,,
09-01-2009,16:00,135,R,ugm-3,101,R,ugm-3,308,R,ugm-3,19,R,ugm-3,,,,,,
09-01-2009,17:00,111,R,ugm-3,94,R,ugm-3,264,R,ugm-3,16,R,ugm-3,,,,,,
09-01-2009,18:00,78,R,ugm-3,78,R,ugm-3,197,R,ugm-3,13,R,ugm-3,,,,,,
09-01-2009,19:00,166,R,ugm-3,103,R,ugm-3,357,R,ugm-3,13,R,ugm-3,,,,,,
09-01-2009,20:00,120,R,ugm-3,86,R,ugm-3,269,R,ugm-3,11,R,ugm-3,,,,,,
09-01-2009,21:00,74,R,ugm-3,76,R,ugm-3,189,R,ugm-3,11,R,ugm-3,,,,,,
09-01-2009,22:00,40,R,ugm-3,63,R,ugm-3,124,R,ugm-3,8,R,ugm-3,,,,,,
09-01-2009,23:00,18,R,ugm-3,50,R,ugm-3,76,R,ugm-3,5,R,ugm-3,,,,,,
09-01-2009,24:00,20,R,ugm-3,44,R,ugm-3,74,R,ugm-3,3,R,ugm-3,,,,,,
10-01-2009,01:00,10,R,ugm-3,38,R,ugm-3,53,R,ugm-3,3,R,ugm-3,,,,,,
10-01-2009,02:00,19,R,ugm-3,42,R,ugm-3,71,R,ugm-3,3,R,ugm-3,,,,,,
10-01-2009,03:00,4,R,ugm-3,27,R,ugm-3,32,R,ugm-3,0,R,ugm-3,,,,,,
10-01-2009,04:00,3,R,ugm-3,23,R,ugm-3,27,R,ugm-3,0,R,ugm-3,,,,,,
10-01-2009,05:00,28,R,ugm-3,31,R,ugm-3,73,R,ugm-3,3,R,ugm-3,,,,,,
10-01-2009,06:00,4,R,ugm-3,21,R,ugm-3,27,R,ugm-3,0,R,ugm-3,,,,,,
10-01-2009,07:00,6,R,ugm-3,29,R,ugm-3,38,R,ugm-3,0,R,ugm-3,,,,,,
10-01-2009,08:00,18,R,ugm-3,32,R,ugm-3,59,R,ugm-3,3,R,ugm-3,,,,,,
10-01-2009,09:00,35,R,ugm-3,36,R,ugm-3,90,R,ugm-3,3,R,ugm-3,,,,,,
10-01-2009,10:00,26,R,ugm-3,40,R,ugm-3,80,R,ugm-3,3,R,ugm-3,,,,,,
10-01-2009,11:00,30,R,ugm-3,44,R,ugm-3,90,R,ugm-3,3,R,ugm-3,,,,,,
10-01-2009,12:00,51,R,ugm-3,52,R,ugm-3,130,R,ugm-3,3,R,ugm-3,,,,,,
10-01-2009,13:00,29,R,ugm-3,40,R,ugm-3,84,R,ugm-3,3,R,ugm-3,,,,,,
10-01-2009,14:00,30,R,ugm-3,44,R,ugm-3,90,R,ugm-3,3,R,ugm-3,,,,,,
10-01-2009,15:00,34,R,ugm-3,48,R,ugm-3,99,R,ugm-3,5,R,ugm-3,,,,,,
10-01-2009,16:00,19,R,ugm-3,32,R,ugm-3,61,R,ugm-3,5,R,ugm-3,,,,,,
10-01-2009,17:00,19,R,ugm-3,27,R,ugm-3,55,R,ugm-3,3,R,ugm-3,,,,,,
10-01-2009,18:00,11,R,ugm-3,25,R,ugm-3,42,R,ugm-3,5,R,ugm-3,,,,,,
10-01-2009,19:00,9,R,ugm-3,17,R,ugm-3,31,R,ugm-3,5,R,ugm-3,,,,,,
10-01-2009,20:00,1,R,ugm-3,10,R,ugm-3,11,R,ugm-3,5,R,ugm-3,,,,,,
10-01-2009,21:00,0,R,ugm-3,8,R,ugm-3,8,R,ugm-3,5,R,ugm-3,,,,,,
10-01-2009,22:00,0,R,ugm-3,10,R,ugm-3,10,R,ugm-3,5,R,ugm-3,,,,,,
10-01-2009,23:00,0,R,ugm-3,8,R,ugm-3,8,R,ugm-3,3,R,ugm-3,,,,,,
10-01-2009,24:00,1,R,ugm-3,8,R,ugm-3,10,R,ugm-3,3,R,ugm-3,,,,,,
11-01-2009,01:00,3,R,ugm-3,8,R,ugm-3,11,R,ugm-3,0,R,ugm-3,,,,,,
11-01-2009,02:00,1,R,ugm-3,8,R,ugm-3,10,R,ugm-3,0,R,ugm-3,,,,,,
11-01-2009,03:00,0,R,ugm-3,6,R,ugm-3,6,R,ugm-3,0,R,ugm-3,,,,,,
11-01-2009,04:00,1,R,ugm-3,6,R,ugm-3,8,R,ugm-3,0,R,ugm-3,,,,,,
11-01-2009,05:00,0,R,ugm-3,6,R,ugm-3,6,R,ugm-3,0,R,ugm-3,,,,,,
11-01-2009,06:00,0,R,ugm-3,6,R,ugm-3,6,R,ugm-3,0,R,ugm-3,,,,,,
11-01-2009,07:00,0,R,ugm-3,2,R,ugm-3,2,R,ugm-3,0,R,ugm-3,,,,,,
11-01-2009,08:00,1,R,ugm-3,4,R,ugm-3,6,R,ugm-3,0,R,ugm-3,,,,,,
11-01-2009,09:00,0,R,ugm-3,4,R,ugm-3,4,R,ugm-3,0,R,ugm-3,,,,,,
11-01-2009,10:00,1,R,ugm-3,4,R,ugm-3,6,R,ugm-3,0,R,ugm-3,,,,,,
11-01-2009,11:00,3,R,ugm-3,8,R,ugm-3,11,R,ugm-3,0,R,ugm-3,,,,,,
11-01-2009,12:00,3,R,ugm-3,6,R,ugm-3,10,R,ugm-3,0,R,ugm-3,,,,,,
11-01-2009,13:00,1,R,ugm-3,8,R,ugm-3,10,R,ugm-3,0,R,ugm-3,,,,,,
11-01-2009,14:00,5,R,ugm-3,10,R,ugm-3,17,R,ugm-3,0,R,ugm-3,,,,,,
11-01-2009,15:00,6,R,ugm-3,11,R,ugm-3,21,R,ugm-3,0,R,ugm-3,,,,,,
11-01-2009,16:00,8,R,ugm-3,17,R,ugm-3,29,R,ugm-3,0,R,ugm-3,,,,,,
11-01-2009,17:00,5,R,ugm-3,11,R,ugm-3,19,R,ugm-3,0,R,ugm-3,,,,,,
11-01-2009,18:00,5,R,ugm-3,11,R,ugm-3,19,R,ugm-3,0,R,ugm-3,,,,,,
11-01-2009,19:00,4,R,ugm-3,8,R,ugm-3,13,R,ugm-3,0,R,ugm-3,,,,,,
11-01-2009,20:00,3,R,ugm-3,10,R,ugm-3,13,R,ugm-3,0,R,ugm-3,,,,,,
11-01-2009,21:00,4,R,ugm-3,8,R,ugm-3,13,R,ugm-3,0,R,ugm-3,,,,,,
11-01-2009,22:00,1,R,ugm-3,10,R,ugm-3,11,R,ugm-3,0,R,ugm-3,,,,,,
11-01-2009,23:00,1,R,ugm-3,4,R,ugm-3,6,R,ugm-3,0,R,ugm-3,,,,,,
11-01-2009,24:00,0,R,ugm-3,4,R,ugm-3,4,R,ugm-3,0,R,ugm-3,,,,,,
12-01-2009,01:00,1,R,ugm-3,4,R,ugm-3,6,R,ugm-3,0,R,ugm-3,,,,,,
12-01-2009,02:00,1,R,ugm-3,2,R,ugm-3,4,R,ugm-3,0,R,ugm-3,,,,,,
12-01-2009,03:00,1,R,ugm-3,4,R,ugm-3,6,R,ugm-3,0,R,ugm-3,,,,,,
12-01-2009,04:00,1,R,ugm-3,4,R,ugm-3,6,R,ugm-3,0,R,ugm-3,,,,,,
12-01-2009,05:00,1,R,ugm-3,0,R,ugm-3,2,R,ugm-3,0,R,ugm-3,,,,,,
12-01-2009,06:00,1,R,ugm-3,4,R,ugm-3,6,R,ugm-3,0,R,ugm-3,,,,,,
12-01-2009,07:00,5,R,ugm-3,13,R,ugm-3,21,R,ugm-3,3,R,ugm-3,,,,,,
12-01-2009,08:00,6,R,ugm-3,17,R,ugm-3,27,R,ugm-3,0,R,ugm-3,,,,,,
12-01-2009,09:00,50,R,ugm-3,61,R,ugm-3,138,R,ugm-3,3,R,ugm-3,,,,,,
12-01-2009,10:00,44,R,ugm-3,61,R,ugm-3,128,R,ugm-3,3,R,ugm-3,,,,,,
12-01-2009,11:00,53,R,ugm-3,61,R,ugm-3,141,R,ugm-3,3,R,ugm-3,,,,,,
12-01-2009,12:00,30,R,ugm-3,40,R,ugm-3,86,R,ugm-3,3,R,ugm-3,,,,,,
12-01-2009,13:00,50,R,ugm-3,63,R,ugm-3,139,R,ugm-3,3,R,ugm-3,,,,,,
12-01-2009,14:00,40,R,ugm-3,53,R,ugm-3,115,R,ugm-3,3,R,ugm-3,,,,,,
12-01-2009,15:00,21,R,ugm-3,34,R,ugm-3,67,R,ugm-3,3,R,ugm-3,,,,,,
12-01-2009,16:00,18,R,ugm-3,31,R,ugm-3,57,R,ugm-3,0,R,ugm-3,,,,,,
12-01-2009,17:00,31,R,ugm-3,42,R,ugm-3,90,R,ugm-3,3,R,ugm-3,,,,,,
12-01-2009,18:00,48,R,ugm-3,65,R,ugm-3,138,R,ugm-3,3,R,ugm-3,,,,,,
12-01-2009,19:00,30,R,ugm-3,63,R,ugm-3,109,R,ugm-3,3,R,ugm-3,,,,,,
12-01-2009,20:00,16,R,ugm-3,40,R,ugm-3,65,R,ugm-3,3,R,ugm-3,,,,,,
12-01-2009,21:00,11,R,ugm-3,46,R,ugm-3,63,R,ugm-3,3,R,ugm-3,,,,,,
12-01-2009,22:00,14,R,ugm-3,50,R,ugm-3,71,R,ugm-3,3,R,ugm-3,,,,,,
12-01-2009,23:00,5,R,ugm-3,25,R,ugm-3,32,R,ugm-3,3,R,ugm-3,,,,,,
12-01-2009,24:00,4,R,ugm-3,19,R,ugm-3,25,R,ugm-3,3,R,ugm-3,,,,,,
13-01-2009,01:00,5,R,ugm-3,15,R,ugm-3,23,R,ugm-3,0,R,ugm-3,,,,,,
13-01-2009,02:00,4,R,ugm-3,2,R,ugm-3,8,R,ugm-3,0,R,ugm-3,,,,,,
13-01-2009,03:00,,,,,,,,,,0,R,ugm-3,,,,,,
13-01-2009,04:00,,,,,,,,,,0,R,ugm-3,,,,,,
13-01-2009,05:00,4,R,ugm-3,10,R,ugm-3,15,R,ugm-3,0,R,ugm-3,,,,,,
13-01-2009,06:00,6,R,ugm-3,21,R,ugm-3,31,R,ugm-3,0,R,ugm-3,,,,,,
13-01-2009,07:00,30,R,ugm-3,46,R,ugm-3,92,R,ugm-3,3,R,ugm-3,,,,,,
13-01-2009,08:00,23,R,ugm-3,61,R,ugm-3,96,R,ugm-3,3,R,ugm-3,,,,,,
13-01-2009,09:00,26,R,ugm-3,63,R,ugm-3,103,R,ugm-3,3,R,ugm-3,,,,,,
13-01-2009,10:00,6,R,ugm-3,25,R,ugm-3,34,R,ugm-3,0,R,ugm-3,,,,,,
13-01-2009,11:00,5,R,ugm-3,13,R,ugm-3,21,R,ugm-3,0,R,ugm-3,,,,,,
13-01-2009,12:00,6,R,ugm-3,17,R,ugm-3,27,R,ugm-3,0,R,ugm-3,,,,,,
13-01-2009,13:00,5,R,ugm-3,11,R,ugm-3,19,R,ugm-3,0,R,ugm-3,,,,,,
13-01-2009,14:00,9,R,ugm-3,21,R,ugm-3,34,R,ugm-3,0,R,ugm-3,,,,,,
13-01-2009,15:00,8,R,ugm-3,15,R,ugm-3,27,R,ugm-3,0,R,ugm-3,,,,,,
13-01-2009,16:00,9,R,ugm-3,17,R,ugm-3,31,R,ugm-3,0,R,ugm-3,,,,,,
13-01-2009,17:00,6,R,ugm-3,27,R,ugm-3,36,R,ugm-3,0,R,ugm-3,,,,,,
13-01-2009,18:00,20,R,ugm-3,55,R,ugm-3,86,R,ugm-3,3,R,ugm-3,,,,,,
13-01-2009,19:00,35,R,ugm-3,63,R,ugm-3,117,R,ugm-3,3,R,ugm-3,,,,,,
13-01-2009,20:00,29,R,ugm-3,61,R,ugm-3,105,R,ugm-3,3,R,ugm-3,,,,,,
13-01-2009,21:00,14,R,ugm-3,38,R,ugm-3,59,R,ugm-3,0,R,ugm-3,,,,,,
13-01-2009,22:00,5,R,ugm-3,21,R,ugm-3,29,R,ugm-3,0,R,ugm-3,,,,,,
13-01-2009,23:00,8,R,ugm-3,29,R,ugm-3,40,R,ugm-3,0,R,ugm-3,,,,,,
13-01-2009,24:00,8,R,ugm-3,23,R,ugm-3,34,R,ugm-3,0,R,ugm-3,,,,,,
14-01-2009,01:00,1,R,ugm-3,17,R,ugm-3,19,R,ugm-3,0,R,ugm-3,,,,,,
14-01-2009,02:00,0,R,ugm-3,15,R,ugm-3,15,R,ugm-3,0,R,ugm-3,,,,,,
14-01-2009,03:00,1,R,ugm-3,11,R,ugm-3,13,R,ugm-3,0,R,ugm-3,,,,,,
14-01-2009,04:00,3,R,ugm-3,13,R,ugm-3,17,R,ugm-3,0,R,ugm-3,,,,,,
14-01-2009,05:00,3,R,ugm-3,19,R,ugm-3,23,R,ugm-3,0,R,ugm-3,,,,,,
14-01-2009,06:00,5,R,ugm-3,25,R,ugm-3,32,R,ugm-3,0,R,ugm-3,,,,,,
14-01-2009,07:00,28,R,ugm-3,52,R,ugm-3,94,R,ugm-3,0,R,ugm-3,,,,,,
14-01-2009,08:00,75,R,ugm-3,73,R,ugm-3,187,R,ugm-3,3,R,ugm-3,,,,,,
14-01-2009,09:00,79,R,ugm-3,84,R,ugm-3,204,R,ugm-3,3,R,ugm-3,,,,,,
14-01-2009,10:00,56,R,ugm-3,67,R,ugm-3,153,R,ugm-3,3,R,ugm-3,,,,,,
14-01-2009,11:00,63,R,ugm-3,67,R,ugm-3,162,R,ugm-3,3,R,ugm-3,,,,,,
14-01-2009,12:00,41,R,ugm-3,53,R,ugm-3,117,R,ugm-3,3,R,ugm-3,,,,,,
14-01-2009,13:00,44,R,ugm-3,52,R,ugm-3,118,R,ugm-3,3,R,ugm-3,,,,,,
14-01-2009,14:00,36,R,ugm-3,48,R,ugm-3,103,R,ugm-3,3,R,ugm-3,,,,,,
14-01-2009,15:00,41,R,ugm-3,50,R,ugm-3,113,R,ugm-3,3,R,ugm-3,,,,,,
14-01-2009,16:00,54,R,ugm-3,67,R,ugm-3,149,R,ugm-3,3,R,ugm-3,,,,,,
14-01-2009,17:00,34,R,ugm-3,48,R,ugm-3,99,R,ugm-3,3,R,ugm-3,,,,,,
14-01-2009,18:00,33,R,ugm-3,50,R,ugm-3,99,R,ugm-3,3,R,ugm-3,,,,,,
14-01-2009,19:00,25,R,ugm-3,48,R,ugm-3,86,R,ugm-3,3,R,ugm-3,,,,,,
14-01-2009,20:00,15,R,ugm-3,36,R,ugm-3,59,R,ugm-3,0,R,ugm-3,,,,,,
14-01-2009,21:00,8,R,ugm-3,23,R,ugm-3,34,R,ugm-3,0,R,ugm-3,,,,,,
14-01-2009,22:00,5,R,ugm-3,19,R,ugm-3,27,R,ugm-3,0,R,ugm-3,,,,,,
14-01-2009,23:00,5,R,ugm-3,17,R,ugm-3,25,R,ugm-3,0,R,ugm-3,,,,,,
14-01-2009,24:00,3,R,ugm-3,13,R,ugm-3,17,R,ugm-3,0,R,ugm-3,,,,,,
15-01-2009,01:00,0,R,ugm-3,10,R,ugm-3,10,R,ugm-3,0,R,ugm-3,,,,,,
15-01-2009,02:00,0,R,ugm-3,6,R,ugm-3,6,R,ugm-3,0,R,ugm-3,,,,,,
15-01-2009,03:00,0,R,ugm-3,6,R,ugm-3,6,R,ugm-3,0,R,ugm-3,,,,,,
15-01-2009,04:00,0,R,ugm-3,6,R,ugm-3,6,R,ugm-3,0,R,ugm-3,,,,,,
15-01-2009,05:00,0,R,ugm-3,6,R,ugm-3,6,R,ugm-3,0,R,ugm-3,,,,,,
15-01-2009,06:00,3,R,ugm-3,8,R,ugm-3,11,R,ugm-3,0,R,ugm-3,,,,,,
15-01-2009,07:00,5,R,ugm-3,13,R,ugm-3,21,R,ugm-3,3,R,ugm-3,,,,,,
15-01-2009,08:00,18,R,ugm-3,29,R,ugm-3,55,R,ugm-3,3,R,ugm-3,,,,,,
15-01-2009,09:00,38,R,ugm-3,44,R,ugm-3,101,R,ugm-3,3,R,ugm-3,,,,,,
15-01-2009,10:00,19,R,ugm-3,29,R,ugm-3,57,R,ugm-3,3,R,ugm-3,,,,,,
15-01-2009,11:00,15,R,ugm-3,27,R,ugm-3,50,R,ugm-3,3,R,ugm-3,,,,,,
15-01-2009,12:00,15,R,ugm-3,23,R,ugm-3,46,R,ugm-3,0,R,ugm-3,,,,,,
15-01-2009,13:00,15,R,ugm-3,29,R,ugm-3,52,R,ugm-3,3,R,ugm-3,,,,,,
15-01-2009,14:00,13,R,ugm-3,25,R,ugm-3,44,R,ugm-3,3,R,ugm-3,,,,,,
15-01-2009,15:00,18,R,ugm-3,25,R,ugm-3,52,R,ugm-3,3,R,ugm-3,,,,,,
15-01-2009,16:00,26,R,ugm-3,36,R,ugm-3,76,R,ugm-3,3,R,ugm-3,,,,,,
15-01-2009,17:00,24,R,ugm-3,34,R,ugm-3,71,R,ugm-3,3,R,ugm-3,,,,,,
15-01-2009,18:00,20,R,ugm-3,29,R,ugm-3,59,R,ugm-3,3,R,ugm-3,,,,,,
15-01-2009,19:00,14,R,ugm-3,27,R,ugm-3,48,R,ugm-3,3,R,ugm-3,,,,,,
15-01-2009,20:00,10,R,ugm-3,17,R,ugm-3,32,R,ugm-3,0,R,ugm-3,,,,,,
15-01-2009,21:00,8,R,ugm-3,19,R,ugm-3,31,R,ugm-3,0,R,ugm-3,,,,,,